www.pogodaiklimat.ru

Погода и климат >> Архив погоды >> Россия >> Иркутская область >> Тулун


ПОГОДА в Тулуне

  • Прогноз погоды в Тулуне
  • Монитор погоды в Тулуне
  • Климат города

АРХИВ ПОГОДЫ в Тулуне

Время (UTC), дата Ветер
(напр.,м/с)
 
Видим.   Явления Облачность Т
(С)
Тd
(С)
f
(%)
Тe
(С)
Тes
(С)
Комфортность P
(гПа)
Po
(гПа)
Тmin
(С)
Tmax
(С)
R
(мм)
R24
(мм)
S
(см)
18 11.10 штиль 0 н/о 9/3 600 м
[Sc Ac trans Ci sp]
+1.0 -0.7 88 -0 -0 1025.6 961.5
21 11.10 СВ 1 н/о 9/5
[Sc Ac trans Ci sp]
+1.2 -1.0 85 -1 -1 1025.9 961.8
00 12.10 В 1 20 км 9/8 600 м
[Sc Ac trans Ci sp]
+0.3 -1.4 88 -2 -2 1026.3 962.0 +0.2
03 12.10 ЮВ 4 20 км 6/3 600 м
[Sc Ac trans Ci sp]
+4.7 -1.2 66 +1 +2 1025.2 961.9 +0.2
06 12.10 ЮВ 4 20 км 6/3 600 м
[Cu hum Ci sp]
+8.3 -0.7 53 +6 +7 1022.5 960.2
09 12.10 ЮВ 2 20 км 8/0
[Ac trans Ci sp]
+9.8 -1.4 46 +9 +9 1021.5 959.6
12 12.10 В 2 н/о 6/0
[Ac lent Ci sp]
+4.7 -0.7 68 +2 +2 1022.6 959.5 +9.9
15 12.10 ЮВ 4 н/о 4/0
[Ci sp]
+3.6 -0.9 72 -1 -1 1022.4 959.1
18 12.10 ЮВ 2 н/о 4/0
[Ci sp]
+2.6 -1.6 74 -0 -0 1021.9 958.4
21 12.10 ЮВ 3 н/о ясно +0.8 -2.3 80 -4 -4 1021.8 957.9
00 13.10 ЮВ 4 20 км 4/0
[Ci fib]
+0.5 -1.9 84 -5 -5 1022.1 958.1 +0.3
03 13.10 ЮВ 5 20 км ясно +4.2 -0.3 72 -1 +1 1021.0 957.9
06 13.10 ЮВ 5 20 км 1/0
[Ci fib]
+10.9 +0.6 49 +9 +11 1017.8 956.3
09 13.10 ЮВ 6 20 км ясно +12.1 -0.2 43 +10 +10 1016.2 955.0
12 13.10 ЮВ 5 н/о 1/0
[Ci sp]
+8.3 -0.1 55 +5 +5 1016.9 954.9 +12.8
15 13.10 ЮВ 5 н/о 9/0
[Ci sp]
+6.5 +0.3 65 +3 +3 1017.0 954.6
18 13.10 Ю 4 н/о 4/0
[Ci sp]
+4.9 -0.7 67 +1 +1 1016.7 954.0
21 13.10 ЮВ 4 н/о 1/0
[Ci sp]
+2.5 -0.9 78 -2 -2 1017.0 953.8
00 14.10 ЮВ 3 20 км 1/0
[Ci sp]
+1.2 -0.6 88 -3 -3 1017.9 954.3 +1.2
03 14.10 ЮВ 4 20 км 1/0
[Ci sp]
+5.0 -0.3 69 +1 +3 1017.7 955.0 +1.0
06 14.10 Ю 2 20 км 3/0
[Ci sp]
+11.9 +0.3 45 +11 +15 1016.6 955.4
09 14.10 В 1 20 км 3/0
[Ci sp]
+14.4 -1.0 35 +15 +16 1016.9 956.2
12 14.10 В 2 н/о ясно +4.0 -0.4 73 +1 +1 1020.7 957.6 +14.7
15 14.10 штиль 0 н/о ясно +3.3 -1.0 73 +3 +3 1021.7 958.4
18 14.10 штиль 0 н/о ясно -0.5 -1.7 92 -2 -2 1022.3 958.1
21 14.10 штиль 0 н/о ясно -2.5 -3.0 96 -4 -4 1022.9 958.1
00 15.10 штиль 0 20 км 5/0
[Ci sp]
-3.0 -3.3 98 -4 -4 1024.0 959.1 -3.5
03 15.10 З 2 20 км 9/0
[Ci sp]
+3.9 -0.2 75 +1 +3 1024.1 960.7
06 15.10 З 3 20 км 9/0
[Ci sp]
+9.6 +0.7 54 +8 +10 1023.5 961.4
09 15.10 З 2 20 км 9/3 600 м
[Cb calv Ac trans Ci sp]
+6.9 -0.5 59 +5 +5 1025.0 962.2
12 15.10 З 1 н/о 9/3 600 м
[Sc Ac trans Ci sp]
+4.5 -0.1 72 +3 +3 1027.3 963.9 +9.9
15 15.10 СЗ 1 н/о 9/0
[Ac trans Ci sp]
+1.4 -0.4 88 -0 -0 1029.1 964.9
18 15.10 штиль 0 н/о 9/3 600 м
[Sc Ac trans]
+2.3 +0.6 89 +1 +1 1029.3 965.3
21 15.10 СВ 2 н/о 6/0
[Ac trans Ci sp]
+0.4 -0.5 94 -3 -3 1028.7 964.3
00 16.10 СВ 3 20 км 10/3 600 м
[Sc Ac As]
+1.0 +0.4 96 -4 -4 1028.3 964.0 -0.4
03 16.10 СВ 3 20 км 10/8 600 м
[Cb calv Ac As]
+3.2 +1.1 86 -1 -1 1026.8 963.1
06 16.10 В 3 20 км 6/5 600 м
[Cb calv Ci sp]
+6.7 +1.3 68 +4 +5 1023.3 960.6
09 16.10 ЮВ 3 20 км 9/0
[Ac trans Ci sp]
+6.5 +1.0 68 +4 +4 1021.0 958.4
12 16.10 СВ 3 н/о 9/3 600 м
[Cb calv Ac trans Ci sp]
+3.1 +0.3 82 -1 -1 1020.7 957.3 +8.0
15 16.10 В 2 н/о 9/4 1000 м
[Sc Ac trans Ci sp]
+2.7 +0.1 83 -0 -0 1019.2 955.9
18 16.10 ЮВ 1 н/о 4/0
[Ac trans Ci sp]
+2.8 +0.2 83 +1 +1 1017.3 954.1
21 16.10 штиль 0 н/о 3/0
[Ci sp]
-2.1 -2.4 98 -3 -3 1019.1 954.7
00 17.10 З 1 20 км 9/4 600 м
[Cb calv Ac trans]
-2.9 -3.0 99 -5 -5 1021.4 956.6 -3.1
03 17.10 СЗ 2 20 км 9/0
[Ci sp]
+3.3 +1.1 85 0 +2 1022.3 958.9
06 17.10 СЗ 3 20 км 9/0
[Ac trans Ci sp]
+8.0 +1.6 64 +6 +7 1021.8 959.4
09 17.10 СЗ 1 20 км 9/0
[Ac trans Ci sp]
+8.5 +1.4 61 +8 +9 1021.9 959.6
12 17.10 СВ 2 н/о 8/0
[Ci sp]
+2.6 -0.1 82 -1 -1 1024.4 960.7 +8.8
15 17.10 штиль 0 н/о 9/0
[Ci sp]
+0.9 -0.2 92 -0 -0 1024.8 960.7
18 17.10 СВ 2 н/о 9/0
[Ci sp]
-1.5 -1.9 97 -6 -6 1024.6 960.0
21 17.10 СВ 1 н/о 9/0
[Ci sp]
-1.5 -1.7 99 -4 -4 1023.6 959.0
00 18.10 СВ 2 500 м туман 8/0
[Ci sp]
-2.4 -2.5 99 -7 -7 1023.6 958.8 -2.5
03 18.10 СВ 2 500 м туман 10/10 300 м
[St]
-0.1 -0.2 99 -4 -4 1022.7 958.5
06 18.10 СЗ 1 20 км {туман} 10/10 300 м
[St]
+2.5 +1.8 95 +1 +1 1020.7 957.3
09 18.10 С 2 20 км 9/4 600 м
[Sc Ac trans Ci sp]
+3.1 +1.5 89 0 0 1020.6 957.3
12 18.10 З 1 н/о 9/6 600 м
[Sc Ac trans Ci sp]
+0.8 +0.6 99 -1 -1 1022.1 958.2 +3.2
15 18.10 штиль 0 н/о 8/3 600 м
[Sc Ac trans Ci sp]
-2.5 -2.6 99 -4 -4 1023.5 958.7

 

Местоположение метеостанции Тулун (Иркутская область, Россия): широта 54.60 долгота 100.60 высота над уровнем моря 522 м.

В архиве по умолчанию представлена погода в Тулуне за последнюю неделю. Архивные данные за месяц целиком и за предыдущие месяцы, начиная с января 2011 года, Вы можете получить, выбрав интересующий диапазон дат из раскрывающегося списка и нажав кнопку "Ввод!".


*Определитесь, кто Вы:
робот инопланетянин человек

Внимание! Время в таблицах - всемирное. Для получения местного времени необходимо прибавить поправку, которая в Тулуне равна 8 ч.

Смотрите также архив погоды в соседних городах и на ближайших метеорологических станциях:

Погода в Тангуе (Иркутская область, Россия) (90 км)
Погода в Нижнеудинске (Иркутская область, Россия) (106 км)
Погода в Зиме (Иркутская область, Россия) (118 км)
Погода в Хадаме (Иркутская область, Россия) (137 км)
Погода в Калтуке (Иркутская область, Россия) (139 км)
Погода в Сараме (Иркутская область, Россия) (144 км)
Погода в Балаганске (Иркутская область, Россия) (169 км)
Погода в Заларях (Иркутская область, Россия) (170 км)
Погода в Нерое (Иркутская область, Россия) (179 км)
Погода в Алыгджере (Иркутская область, Россия) (189 км)

Пояснения к столбцам:

Ветер - указаны скорость ветра в м/с - средняя за 10 мин, порывы в срок и между сроками (в фигурных скобках) и направление, откуда дует ветер: С - северный, СВ - северо-восточный, В - восточный, ЮВ - юго-восточный, Ю - южный, ЮЗ - юго-западный, З - западный, СЗ - северо-западный.
Видимость - горизонтальная дальность видимости в метрах или километрах. При видимости от 1 до 10 км при отсутствии осадков обычно наблюдается дымка, при ухудшении видимости до 1 км и менее - туман. В сухую погоду видимость может ухудшаться дымом, пылью или мглою.
Явления - указаны атмосферные явления, наблюдавшиеся в срок или в последний час перед сроком; фигурными скобками обозначены явления, наблюдавшиеся между сроками (за 1-3 часа до срока); квадратными скобками обозначены град или гололедные отложения с указанием их диаметра в мм.
Облачность - указаны через наклонную черту общая и нижняя облачность в баллах и высота нижней границы облаков в метрах; квадратными скобками обозначены формы облаков: Ci - перистые, Cs - перисто-слоистые, Cc - перисто-кучевые, Ac - высококучевые, As - высокослоистые, Sc - слоисто-кучевые, Ns - слоисто-дождевые, Cu - кучевые, Cb - кучево-дождевые. Подробнее классификацию облаков см. в Атласе облаков (PDF).
T - Температура воздуха - температура, измеренная на высоте 2 м над землей.
Td - Температура точки росы - температура, при понижении до которой содержащийся в воздухе водяной пар достигнет насыщения.
f - Относительная влажность воздуха - влажноcть воздуха, измеренная на высоте 2 м над землей.
Te - Эффективная температура - температура, которую ощущает одетый по сезону человек в тени. Характеристика душности погоды. При расчете учитывается влияние влажности воздуха и скорости ветра на теплоощущения человека.
Tes - Эффективная температура на солнце - температура, которую ощущает человек, с поправкой на солнечный нагрев. Характеристика знойности погоды. Зависит от высоты солнца над горизонтом, облачности и скорости ветра. Ночью, в пасмурную погоду, а также при ветре 12 м/с и более поправка равна нулю.
P - Атмосферное давление - приведенное к уровню моря атмосферное давление.
Po - Атмосферное давление - измеренное на уровне метеостанции атмосферное давление.
Tmin - Минимальная температура - минимум температуры воздуха на высоте 2 м над землей.
Tmax - Максимальная температура - максимум температуры воздуха на высоте 2 м над землей.
R - Количество осадков - Количество выпавших осадков за период времени, мм. При наведении курсора мыши на число - период времени, за который выпало указанное количество осадков.
R24 - Количество осадков - Количество выпавших осадков за 24 часа, мм.
S - Снежный покров - Высота снежного покрова, см. При наведении курсора мыши на число - состояние снежного покрова и степень покрытия местности в баллах.